When you browse on this site, cookies collect data to enhance your experience and personalize the content and advertising you see.
Visit our Privacy Policy to learn more. By continuing to use the site, you agree to this use of cookies and data.
  • En España
  • Lista de países
  • Para 7 días
  • Temperatura del agua
  • Mapa Satelital
  • El tiempo en el mapa
  • Informadores
  • user-avatar
    Iniciar sesión

    Tiempo cada hora Haskovo

    Hoy, 18 Noviembre, Domingo

    Tiempo Temperatura Precipitaciones Viento Presión Humedad
    00:00 +4°C° 0.1 mm 2 mps 749 mmHg 76%
    01:00 +4°C° 0.1 mm 2 mps 749 mmHg 77%
    02:00 +4°C° 0.1 mm 2 mps 749 mmHg 78%
    03:00 +4°C° 0 mm 2 mps 749 mmHg 79%
    04:00 +4°C° 0 mm 2 mps 748 mmHg 79%
    05:00 +4°C° 0 mm 2 mps 748 mmHg 80%
    06:00 +4°C° 0.1 mm 2 mps 748 mmHg 80%
    07:00 +4°C° 0.1 mm 2 mps 747 mmHg 81%
    08:00 +4°C° 0.1 mm 2 mps 747 mmHg 81%
    09:00 +5°C° 0.1 mm 2 mps 747 mmHg 81%
    10:00 +5°C° 0.1 mm 2 mps 746 mmHg 80%
    11:00 +4°C° 0.1 mm 3 mps 746 mmHg 80%
    12:00 +5°C° 0.3 mm 3 mps 745 mmHg 81%
    13:00 +5°C° 0.3 mm 3 mps 744 mmHg 81%
    14:00 +5°C° 0.3 mm 3 mps 744 mmHg 82%
    15:00 +5°C° 1.1 mm 3 mps 743 mmHg 84%
    16:00 +5°C° 1.1 mm 3 mps 742 mmHg 86%
    17:00 +5°C° 1.1 mm 3 mps 742 mmHg 88%
    18:00 +5°C° 1.6 mm 3 mps 741 mmHg 88%
    19:00 +5°C° 1.6 mm 3 mps 741 mmHg 89%
    20:00 +5°C° 1.6 mm 4 mps 740 mmHg 90%
    21:00 +5°C° 2.7 mm 3 mps 739 mmHg 91%
    22:00 +7°C° 2.7 mm 3 mps 739 mmHg 92%
    23:00 +7°C° 2.7 mm 3 mps 738 mmHg 92%

    Mañana, 19 Noviembre, Lunes

    Tiempo Temperatura Precipitaciones Viento Presión Humedad
    00:00 +7°C° 3.3 mm 3 mps 738 mmHg 93%
    01:00 +7°C° 3.3 mm 3 mps 737 mmHg 93%
    02:00 +7°C° 3.3 mm 3 mps 737 mmHg 93%
    03:00 +7°C° 1.3 mm 3 mps 736 mmHg 92%
    04:00 +7°C° 1.3 mm 3 mps 736 mmHg 91%
    05:00 +7°C° 1.3 mm 3 mps 736 mmHg 90%
    06:00 +7°C° 0 mm 3 mps 736 mmHg 89%
    07:00 +7°C° 0 mm 3 mps 736 mmHg 88%
    08:00 +7°C° 0 mm 2 mps 737 mmHg 87%
    09:00 +8°C° 0 mm 2 mps 737 mmHg 83%
    10:00 +9°C° 0 mm 2 mps 738 mmHg 79%
    11:00 +10°C° 0 mm 2 mps 738 mmHg 75%
    12:00 +10°C° 0 mm 2 mps 739 mmHg 72%
    13:00 +12°C° 0 mm 2 mps 739 mmHg 70%
    14:00 +13°C° 0 mm 2 mps 739 mmHg 67%
    15:00 +12°C° 0 mm 2 mps 740 mmHg 71%
    16:00 +10°C° 0 mm 2 mps 740 mmHg 74%
    17:00 +9°C° 0 mm 2 mps 741 mmHg 78%
    18:00 +8°C° 0 mm 2 mps 741 mmHg 79%
    19:00 +7°C° 0 mm 2 mps 742 mmHg 81%
    20:00 +7°C° 0 mm 2 mps 742 mmHg 82%
    21:00 +6°C° 0 mm 2 mps 743 mmHg 83%
    22:00 +6°C° 0 mm 2 mps 743 mmHg 83%
    23:00 +6°C° 0 mm 1 mps 744 mmHg 84%

    Pasado mañana, 20 Noviembre, Martes

    Tiempo Temperatura Precipitaciones Viento Presión Humedad
    00:00 +6°C° 0 mm 1 mps 744 mmHg 84%
    01:00 +6°C° 0 mm 1 mps 744 mmHg 84%
    02:00 +6°C° 0 mm 1 mps 744 mmHg 85%
    03:00 +6°C° 0 mm 1 mps 744 mmHg 85%
    04:00 +5°C° 0 mm 1 mps 744 mmHg 86%
    05:00 +5°C° 0 mm 1 mps 744 mmHg 86%
    06:00 +5°C° 0 mm 1 mps 745 mmHg 86%
    07:00 +5°C° 0 mm 1 mps 745 mmHg 85%
    08:00 +5°C° 0 mm 2 mps 745 mmHg 85%
    09:00 +5°C° 0 mm 2 mps 745 mmHg 83%
    10:00 +6°C° 0 mm 2 mps 745 mmHg 81%
    11:00 +7°C° 0 mm 2 mps 745 mmHg 79%
    12:00 +7°C° 0 mm 2 mps 744 mmHg 80%
    13:00 +8°C° 0 mm 2 mps 744 mmHg 80%
    14:00 +8°C° 0 mm 2 mps 743 mmHg 81%
    15:00 +8°C° 0.1 mm 2 mps 743 mmHg 84%
    16:00 +8°C° 0.1 mm 2 mps 743 mmHg 87%
    17:00 +7°C° 0.1 mm 2 mps 742 mmHg 90%
    18:00 +9°C° 0.1 mm 1 mps 742 mmHg 91%
    19:00 +9°C° 0.1 mm 1 mps 742 mmHg 92%
    20:00 +9°C° 0.1 mm 1 mps 742 mmHg 93%
    21:00 +9°C° 0.2 mm 1 mps 742 mmHg 94%
    22:00 +10°C° 0.2 mm 1 mps 741 mmHg 95%
    23:00 +10°C° 0.2 mm 1 mps 741 mmHg 96%

    21 Noviembre, Miércoles

    Tiempo Temperatura Precipitaciones Viento Presión Humedad
    00:00 +9°C° 0.1 mm 2 mps 741 mmHg 96%
    01:00 +10°C° 0.1 mm 2 mps 740 mmHg 97%
    02:00 +10°C° 0.1 mm 2 mps 740 mmHg 97%
    03:00 +10°C° 0.3 mm 2 mps 739 mmHg 97%
    04:00 +10°C° 0.3 mm 2 mps 738 mmHg 97%
    05:00 +12°C° 0.3 mm 2 mps 738 mmHg 97%
    06:00 +11°C° 0.5 mm 3 mps 737 mmHg 97%
    07:00 +11°C° 0.5 mm 3 mps 737 mmHg 96%
    08:00 +12°C° 0.5 mm 3 mps 736 mmHg 96%
    09:00 +12°C° 0.8 mm 3 mps 736 mmHg 93%
    10:00 +13°C° 0.8 mm 4 mps 736 mmHg 91%
    11:00 +14°C° 0.8 mm 4 mps 736 mmHg 88%
    12:00 +15°C° 0.3 mm 4 mps 736 mmHg 83%
    13:00 +15°C° 0.3 mm 4 mps 735 mmHg 78%
    14:00 +17°C° 0.3 mm 4 mps 735 mmHg 74%
    15:00 +15°C° 0.8 mm 4 mps 736 mmHg 77%
    16:00 +14°C° 0.8 mm 4 mps 736 mmHg 81%
    17:00 +12°C° 0.8 mm 3 mps 736 mmHg 85%
    18:00 +12°C° 0.2 mm 3 mps 737 mmHg 84%
    19:00 +11°C° 0.2 mm 4 mps 737 mmHg 83%
    20:00 +10°C° 0.2 mm 4 mps 738 mmHg 83%
    21:00 +10°C° 0 mm 4 mps 738 mmHg 82%
    22:00 +10°C° 0 mm 4 mps 739 mmHg 81%
    23:00 +10°C° 0 mm 4 mps 739 mmHg 80%

    22 Noviembre, Jueves

    Tiempo Temperatura Precipitaciones Viento Presión Humedad
    00:00 +8°C° 0 mm 4 mps 739 mmHg 80%
    01:00 +8°C° 0 mm 4 mps 740 mmHg 81%
    02:00 +8°C° 0 mm 4 mps 740 mmHg 81%
    03:00 +9°C° 0 mm 3 mps 740 mmHg 81%
    04:00 +9°C° 0 mm 3 mps 741 mmHg 81%
    05:00 +9°C° 0 mm 3 mps 741 mmHg 82%
    06:00 +9°C° 0 mm 3 mps 742 mmHg 82%
    07:00 +8°C° 0 mm 3 mps 742 mmHg 82%
    08:00 +8°C° 0 mm 3 mps 743 mmHg 82%
    09:00 +9°C° 0 mm 3 mps 743 mmHg 79%
    10:00 +10°C° 0 mm 3 mps 744 mmHg 76%
    11:00 +10°C° 0 mm 3 mps 744 mmHg 72%
    12:00 +11°C° 0 mm 3 mps 745 mmHg 72%
    13:00 +11°C° 0 mm 3 mps 745 mmHg 71%
    14:00 +11°C° 0 mm 3 mps 745 mmHg 70%
    15:00 +10°C° 0 mm 2 mps 745 mmHg 73%
    16:00 +10°C° 0 mm 2 mps 745 mmHg 77%
    17:00 +9°C° 0 mm 2 mps 746 mmHg 80%
    18:00 +8°C° 0 mm 2 mps 746 mmHg 82%
    19:00 +8°C° 0 mm 2 mps 746 mmHg 84%
    20:00 +7°C° 0 mm 2 mps 747 mmHg 85%
    21:00 +8°C° 0 mm 1 mps 747 mmHg 86%
    22:00 +8°C° 0 mm 1 mps 747 mmHg 87%
    23:00 +7°C° 0 mm 1 mps 748 mmHg 87%

    23 Noviembre, Viernes

    Tiempo Temperatura Precipitaciones Viento Presión Humedad
    00:00 +7°C° 0 mm 1 mps 748 mmHg 88%
    01:00 +7°C° 0 mm 1 mps 748 mmHg 88%
    02:00 +6°C° 0 mm 1 mps 748 mmHg 88%
    03:00 +6°C° 0 mm 1 mps 748 mmHg 88%
    04:00 +6°C° 0 mm 1 mps 748 mmHg 88%
    05:00 +6°C° 0 mm 1 mps 748 mmHg 88%
    06:00 +6°C° 0 mm 1 mps 748 mmHg 88%
    07:00 +6°C° 0 mm 1 mps 749 mmHg 87%
    08:00 +6°C° 0 mm 1 mps 749 mmHg 87%
    09:00 +7°C° 0 mm 1 mps 749 mmHg 81%
    10:00 +8°C° 0 mm 1 mps 749 mmHg 75%
    11:00 +9°C° 0 mm 1 mps 750 mmHg 69%
    12:00 +9°C° 0 mm 2 mps 750 mmHg 67%
    13:00 +10°C° 0 mm 2 mps 749 mmHg 65%
    14:00 +10°C° 0 mm 2 mps 749 mmHg 63%
    15:00 +9°C° 0 mm 2 mps 749 mmHg 67%
    16:00 +8°C° 0 mm 2 mps 749 mmHg 71%
    17:00 +9°C° 0 mm 1 mps 749 mmHg 75%
    18:00 +8°C° 0 mm 1 mps 750 mmHg 78%
    19:00 +7°C° 0 mm 1 mps 750 mmHg 80%
    20:00 +7°C° 0 mm 1 mps 750 mmHg 83%
    21:00 +7°C° 0 mm 1 mps 750 mmHg 84%
    22:00 +6°C° 0 mm 1 mps 750 mmHg 86%
    23:00 +6°C° 0 mm 1 mps 750 mmHg 87%
    Mostrar más